Time,TemperatureF,DewpointF,PressureIn,WindDirection,WindDirectionDegrees,WindSpeedMPH,WindSpeedGustMPH,Humidity,HourlyPrecipIn,Conditions,Clouds,dailyrainin,SoftwareType,DateUTC
2013-01-14 00:01:00,64.2,59.3,29.63,SSE,157,0.0,2.9,84,0.00,,,0.00,WUHU21623XXSP,2013-01-14 05:01:00,
2013-01-14 00:03:00,64.2,59.6,29.64,SSW,202,1.3,2.9,85,0.00,,,0.00,WUHU21623XXSP,2013-01-14 05:03:00,
2013-01-14 00:09:00,64.2,59.6,29.64,SSW,202,0.7,1.3,85,0.00,,,0.00,WUHU21623XXSP,2013-01-14 05:09:00,
2013-01-14 00:14:00,64.2,59.6,29.64,South,180,0.0,2.9,85,0.00,,,0.00,WUHU21623XXSP,2013-01-14 05:14:00,
2013-01-14 00:18:00,64.2,59.6,29.64,SW,225,2.2,4.3,85,0.00,,,0.00,WUHU21623XXSP,2013-01-14 05:18:00,
2013-01-14 00:24:00,64.0,59.5,29.64,SW,225,0.0,6.9,85,0.00,,,0.00,WUHU21623XXSP,2013-01-14 05:24:00,
2013-01-14 00:29:00,64.0,59.5,29.64,SE,135,0.0,6.9,85,0.00,,,0.00,WUHU21623XXSP,2013-01-14 05:29:00,
2013-01-14 00:34:00,64.0,59.5,29.64,South,180,0.0,3.8,85,0.00,,,0.00,WUHU21623XXSP,2013-01-14 05:34:00,
2013-01-14 00:39:00,64.0,59.5,29.63,SSW,202,0.0,3.4,85,0.00,,,0.00,WUHU21623XXSP,2013-01-14 05:39:00,
2013-01-14 00:44:00,63.9,59.3,29.63,SSW,202,0.0,3.4,85,0.00,,,0.00,WUHU21623XXSP,2013-01-14 05:44:00,
2013-01-14 00:49:00,63.9,59.6,29.63,SW,225,0.0,4.0,86,0.00,,,0.00,WUHU21623XXSP,2013-01-14 05:49:00,
2013-01-14 00:54:00,63.9,59.6,29.63,SW,225,0.0,4.0,86,0.00,,,0.00,WUHU21623XXSP,2013-01-14 05:54:00,
2013-01-14 00:59:00,63.7,59.4,29.63,WSW,247,0.0,4.0,86,0.00,,,0.00,WUHU21623XXSP,2013-01-14 05:59:00,
2013-01-14 01:04:00,63.7,59.4,29.64,SW,225,0.0,3.4,86,0.00,,,0.00,WUHU21623XXSP,2013-01-14 06:04:00,
2013-01-14 01:09:00,63.5,59.3,29.64,SW,225,0.0,3.8,86,0.00,,,0.00,WUHU21623XXSP,2013-01-14 06:09:00,
2013-01-14 01:14:00,63.5,59.3,29.64,SE,135,0.0,3.8,86,0.00,,,0.00,WUHU21623XXSP,2013-01-14 06:14:00,
2013-01-14 01:19:00,63.5,59.3,29.64,SSW,202,0.0,2.9,86,0.00,,,0.00,WUHU21623XXSP,2013-01-14 06:19:00,
2013-01-14 01:24:00,63.3,59.1,29.65,SSW,202,0.0,2.9,86,0.00,,,0.00,WUHU21623XXSP,2013-01-14 06:24:00,
2013-01-14 01:29:00,63.1,58.9,29.65,SW,225,0.0,0.0,86,0.00,,,0.00,WUHU21623XXSP,2013-01-14 06:29:00,
2013-01-14 01:34:00,63.1,58.9,29.65,SW,225,0.0,0.0,86,0.00,,,0.00,WUHU21623XXSP,2013-01-14 06:34:00,
2013-01-14 01:39:00,63.1,58.9,29.65,SW,225,0.0,1.3,86,0.00,,,0.00,WUHU21623XXSP,2013-01-14 06:39:00,
2013-01-14 01:44:00,62.8,58.5,29.64,SW,225,0.0,1.3,86,0.00,,,0.00,WUHU21623XXSP,2013-01-14 06:44:00,
2013-01-14 01:49:00,62.8,58.9,29.65,SSE,157,0.0,4.0,87,0.00,,,0.00,WUHU21623XXSP,2013-01-14 06:49:00,
2013-01-14 01:54:00,62.8,58.9,29.65,SSE,157,0.0,4.0,87,0.00,,,0.00,WUHU21623XXSP,2013-01-14 06:54:00,
2013-01-14 01:59:00,62.8,58.9,29.65,SSE,157,0.0,0.0,87,0.00,,,0.00,WUHU21623XXSP,2013-01-14 06:59:00,
2013-01-14 02:04:00,62.8,58.9,29.65,SSE,157,0.0,0.0,87,0.00,,,0.00,WUHU21623XXSP,2013-01-14 07:04:00,
2013-01-14 02:09:00,62.8,58.9,29.65,SSE,157,0.0,0.0,87,0.00,,,0.00,WUHU21623XXSP,2013-01-14 07:09:00,
2013-01-14 02:14:00,62.4,58.5,29.65,SSE,157,0.0,0.0,87,0.00,,,0.00,WUHU21623XXSP,2013-01-14 07:14:00,
2013-01-14 02:19:00,62.4,58.5,29.65,SSE,157,0.0,0.0,87,0.00,,,0.00,WUHU21623XXSP,2013-01-14 07:19:00,
2013-01-14 02:24:00,62.4,58.9,29.65,SSE,157,0.0,0.0,88,0.00,,,0.00,WUHU21623XXSP,2013-01-14 07:24:00,
2013-01-14 02:29:00,62.4,58.9,29.65,South,180,0.0,4.7,88,0.00,,,0.00,WUHU21623XXSP,2013-01-14 07:29:00,
2013-01-14 02:34:00,62.4,58.9,29.66,South,180,0.0,4.7,88,0.00,,,0.00,WUHU21623XXSP,2013-01-14 07:34:00,
2013-01-14 02:39:00,62.2,58.7,29.65,SE,135,0.9,1.3,88,0.00,,,0.00,WUHU21623XXSP,2013-01-14 07:39:00,
2013-01-14 02:44:00,62.2,58.7,29.65,SE,135,0.0,1.3,88,0.00,,,0.00,WUHU21623XXSP,2013-01-14 07:44:00,
2013-01-14 02:49:00,62.2,58.7,29.65,SSE,157,0.0,2.0,88,0.00,,,0.00,WUHU21623XXSP,2013-01-14 07:49:00,
2013-01-14 02:54:00,62.1,58.5,29.65,SSE,157,0.0,3.4,88,0.00,,,0.00,WUHU21623XXSP,2013-01-14 07:54:00,
2013-01-14 02:59:00,61.9,58.3,29.65,SSW,202,0.9,3.4,88,0.00,,,0.00,WUHU21623XXSP,2013-01-14 07:59:00,
2013-01-14 03:04:00,61.9,58.7,29.65,West,270,0.0,2.5,89,0.00,,,0.00,WUHU21623XXSP,2013-01-14 08:04:00,
2013-01-14 03:09:00,61.9,58.7,29.65,SSE,157,0.0,1.8,89,0.00,,,0.00,WUHU21623XXSP,2013-01-14 08:09:00,
2013-01-14 03:14:00,61.7,58.5,29.65,South,180,0.0,0.0,89,0.00,,,0.00,WUHU21623XXSP,2013-01-14 08:14:00,
2013-01-14 03:19:00,61.7,58.5,29.65,South,180,0.0,0.0,89,0.00,,,0.00,WUHU21623XXSP,2013-01-14 08:19:00,
2013-01-14 03:24:00,61.5,58.3,29.65,South,180,0.0,0.0,89,0.00,,,0.00,WUHU21623XXSP,2013-01-14 08:24:00,
2013-01-14 03:29:00,61.5,58.3,29.65,SSW,202,0.0,0.7,89,0.00,,,0.00,WUHU21623XXSP,2013-01-14 08:29:00,
2013-01-14 03:34:00,61.3,58.1,29.64,SSW,202,0.0,0.7,89,0.00,,,0.00,WUHU21623XXSP,2013-01-14 08:34:00,
2013-01-14 03:39:00,61.3,58.1,29.64,SSW,202,0.0,0.0,89,0.00,,,0.00,WUHU21623XXSP,2013-01-14 08:39:00,
2013-01-14 03:45:00,61.3,58.1,29.64,SSE,157,0.0,0.4,89,0.00,,,0.00,WUHU21623XXSP,2013-01-14 08:45:00,
2013-01-14 03:50:00,61.3,58.5,29.64,SSE,157,0.0,0.4,90,0.00,,,0.00,WUHU21623XXSP,2013-01-14 08:50:00,
2013-01-14 03:55:00,61.3,58.5,29.64,SE,135,0.0,0.9,90,0.00,,,0.00,WUHU21623XXSP,2013-01-14 08:55:00,
2013-01-14 04:00:00,61.3,58.5,29.64,SSW,202,0.0,1.6,90,0.00,,,0.00,WUHU21623XXSP,2013-01-14 09:00:00,
2013-01-14 04:05:00,61.3,58.5,29.63,SSW,202,0.0,1.6,90,0.00,,,0.00,WUHU21623XXSP,2013-01-14 09:05:00,
2013-01-14 04:10:00,61.3,58.5,29.63,South,180,0.0,0.4,90,0.00,,,0.00,WUHU21623XXSP,2013-01-14 09:10:00,
2013-01-14 04:15:00,61.3,58.5,29.63,SSW,202,0.7,0.9,90,0.00,,,0.00,WUHU21623XXSP,2013-01-14 09:15:00,
2013-01-14 04:20:00,61.3,58.5,29.63,SSE,157,0.0,1.8,90,0.00,,,0.00,WUHU21623XXSP,2013-01-14 09:20:00,
2013-01-14 04:25:00,61.3,58.5,29.63,South,180,0.0,2.7,90,0.00,,,0.00,WUHU21623XXSP,2013-01-14 09:25:00,
2013-01-14 04:30:00,61.2,58.3,29.63,South,180,0.0,2.7,90,0.00,,,0.00,WUHU21623XXSP,2013-01-14 09:30:00,
2013-01-14 04:35:00,61.0,58.1,29.62,South,180,0.0,0.4,90,0.00,,,0.00,WUHU21623XXSP,2013-01-14 09:35:00,
2013-01-14 04:40:00,61.0,58.1,29.62,SSE,157,0.0,4.0,90,0.00,,,0.00,WUHU21623XXSP,2013-01-14 09:40:00,
2013-01-14 04:45:00,61.0,58.1,29.63,SSW,202,0.0,4.0,90,0.00,,,0.00,WUHU21623XXSP,2013-01-14 09:45:00,
2013-01-14 04:50:00,60.8,57.9,29.63,SSE,157,0.0,3.1,90,0.00,,,0.00,WUHU21623XXSP,2013-01-14 09:50:00,
2013-01-14 04:55:00,61.0,58.1,29.63,SSE,157,0.0,3.1,90,0.00,,,0.00,WUHU21623XXSP,2013-01-14 09:55:00,
2013-01-14 05:00:00,60.6,57.7,29.63,SE,135,0.0,4.7,90,0.00,,,0.00,WUHU21623XXSP,2013-01-14 10:00:00,
2013-01-14 05:05:00,60.6,57.7,29.63,SSE,157,0.0,4.7,90,0.00,,,0.00,WUHU21623XXSP,2013-01-14 10:05:00,
2013-01-14 05:10:00,60.8,57.9,29.63,SSE,157,0.0,0.0,90,0.00,,,0.00,WUHU21623XXSP,2013-01-14 10:10:00,
2013-01-14 05:15:00,60.8,57.9,29.63,SSE,157,0.0,0.4,90,0.00,,,0.00,WUHU21623XXSP,2013-01-14 10:15:00,
2013-01-14 05:20:00,60.6,57.7,29.63,SSE,157,0.0,0.4,90,0.00,,,0.00,WUHU21623XXSP,2013-01-14 10:20:00,
2013-01-14 05:25:00,60.6,57.7,29.63,SSE,157,0.0,0.0,90,0.00,,,0.00,WUHU21623XXSP,2013-01-14 10:25:00,
2013-01-14 05:30:00,60.6,57.7,29.63,SSE,157,0.0,0.0,90,0.00,,,0.00,WUHU21623XXSP,2013-01-14 10:30:00,
2013-01-14 05:35:00,60.4,57.6,29.63,SSE,157,0.0,0.0,90,0.00,,,0.00,WUHU21623XXSP,2013-01-14 10:35:00,
2013-01-14 05:40:00,60.4,57.6,29.63,SSE,157,0.0,0.0,90,0.00,,,0.00,WUHU21623XXSP,2013-01-14 10:40:00,
2013-01-14 05:45:00,60.3,57.4,29.63,SSE,157,0.0,0.0,90,0.00,,,0.00,WUHU21623XXSP,2013-01-14 10:45:00,
2013-01-14 05:50:00,60.1,57.2,29.63,SSE,157,0.0,0.0,90,0.00,,,0.00,WUHU21623XXSP,2013-01-14 10:50:00,
2013-01-14 05:55:00,60.1,57.2,29.63,SW,225,0.0,1.6,90,0.00,,,0.00,WUHU21623XXSP,2013-01-14 10:55:00,
2013-01-14 06:00:00,60.1,57.5,29.63,SSE,157,1.6,2.9,91,0.00,,,0.00,WUHU21623XXSP,2013-01-14 11:00:00,
2013-01-14 06:05:00,60.1,57.5,29.63,SSE,157,0.0,4.0,91,0.00,,,0.00,WUHU21623XXSP,2013-01-14 11:05:00,
2013-01-14 06:10:00,60.1,57.5,29.63,South,180,0.0,4.0,91,0.00,,,0.00,WUHU21623XXSP,2013-01-14 11:10:00,
2013-01-14 06:15:00,60.1,57.5,29.63,South,180,0.0,3.4,91,0.00,,,0.00,WUHU21623XXSP,2013-01-14 11:15:00,
2013-01-14 06:20:00,60.1,57.5,29.63,South,180,0.0,4.7,91,0.00,,,0.00,WUHU21623XXSP,2013-01-14 11:20:00,
2013-01-14 06:25:00,60.1,57.5,29.64,South,180,0.0,4.7,91,0.00,,,0.00,WUHU21623XXSP,2013-01-14 11:25:00,
2013-01-14 06:30:00,60.1,57.5,29.64,SSW,202,0.0,0.0,91,0.00,,,0.00,WUHU21623XXSP,2013-01-14 11:30:00,
2013-01-14 06:35:00,59.9,57.3,29.64,SSE,157,0.7,1.6,91,0.00,,,0.00,WUHU21623XXSP,2013-01-14 11:35:00,
2013-01-14 06:40:00,60.1,57.5,29.64,SSE,157,0.0,1.6,91,0.00,,,0.00,WUHU21623XXSP,2013-01-14 11:40:00,
2013-01-14 06:46:00,60.1,57.5,29.64,SSE,157,0.0,0.7,91,0.00,,,0.00,WUHU21623XXSP,2013-01-14 11:46:00,
2013-01-14 06:51:00,60.3,57.7,29.65,South,180,0.0,1.3,91,0.00,,,0.00,WUHU21623XXSP,2013-01-14 11:51:00,
2013-01-14 06:56:00,60.4,57.8,29.65,SSE,157,0.0,1.3,91,0.00,,,0.00,WUHU21623XXSP,2013-01-14 11:56:00,
2013-01-14 07:01:00,60.4,57.8,29.65,SSE,157,0.0,0.0,91,0.00,,,0.00,WUHU21623XXSP,2013-01-14 12:01:00,
2013-01-14 07:06:00,60.4,57.8,29.65,SSE,157,0.0,0.0,91,0.00,,,0.00,WUHU21623XXSP,2013-01-14 12:06:00,
2013-01-14 07:11:00,60.4,57.8,29.65,SSW,202,0.0,3.4,91,0.00,,,0.00,WUHU21623XXSP,2013-01-14 12:11:00,
2013-01-14 07:16:00,60.4,57.8,29.66,SSW,202,0.0,3.4,91,0.00,,,0.00,WUHU21623XXSP,2013-01-14 12:16:00,
2013-01-14 07:21:00,60.4,57.8,29.65,South,180,0.0,1.1,91,0.00,,,0.00,WUHU21623XXSP,2013-01-14 12:21:00,
2013-01-14 07:26:00,60.4,57.8,29.65,South,180,0.0,1.1,91,0.00,,,0.00,WUHU21623XXSP,2013-01-14 12:26:00,
2013-01-14 07:31:00,60.6,58.0,29.65,South,180,0.0,2.5,91,0.00,,,0.00,WUHU21623XXSP,2013-01-14 12:31:00,
2013-01-14 07:36:00,60.6,58.0,29.65,SSE,157,0.0,2.5,91,0.00,,,0.00,WUHU21623XXSP,2013-01-14 12:36:00,
2013-01-14 07:41:00,60.6,58.0,29.66,SSE,157,0.0,2.0,91,0.00,,,0.00,WUHU21623XXSP,2013-01-14 12:41:00,
2013-01-14 07:46:00,60.6,58.0,29.66,SSW,202,0.0,0.0,91,0.00,,,0.00,WUHU21623XXSP,2013-01-14 12:46:00,
2013-01-14 07:51:00,60.6,58.0,29.67,SSW,202,0.0,1.6,91,0.00,,,0.00,WUHU21623XXSP,2013-01-14 12:51:00,
2013-01-14 07:56:00,61.0,58.4,29.67,SW,225,0.0,2.2,91,0.00,,,0.00,WUHU21623XXSP,2013-01-14 12:56:00,
2013-01-14 08:01:00,61.2,58.6,29.67,SW,225,0.0,2.2,91,0.00,,,0.00,WUHU21623XXSP,2013-01-14 13:01:00,
2013-01-14 08:06:00,61.2,58.6,29.68,SW,225,0.0,1.6,91,0.00,,,0.00,WUHU21623XXSP,2013-01-14 13:06:00,
2013-01-14 08:11:00,61.2,58.6,29.67,SSE,157,0.0,1.1,91,0.00,,,0.00,WUHU21623XXSP,2013-01-14 13:11:00,
2013-01-14 08:16:00,61.3,58.7,29.68,WSW,247,0.0,0.7,91,0.00,,,0.00,WUHU21623XXSP,2013-01-14 13:16:00,
2013-01-14 08:21:00,61.5,58.9,29.68,WSW,247,0.0,0.7,91,0.00,,,0.00,WUHU21623XXSP,2013-01-14 13:21:00,
2013-01-14 08:26:00,61.5,58.9,29.68,SW,225,1.8,1.8,91,0.00,,,0.00,WUHU21623XXSP,2013-01-14 13:26:00,
2013-01-14 08:31:00,61.9,59.3,29.68,SW,225,0.0,1.8,91,0.00,,,0.00,WUHU21623XXSP,2013-01-14 13:31:00,
2013-01-14 08:36:00,62.2,59.6,29.68,East,90,0.0,2.2,91,0.00,,,0.00,WUHU21623XXSP,2013-01-14 13:36:00,
2013-01-14 08:41:00,62.4,59.8,29.69,SW,225,1.8,2.5,91,0.00,,,0.00,WUHU21623XXSP,2013-01-14 13:41:00,
2013-01-14 08:46:00,63.1,60.5,29.68,SW,225,0.0,2.5,91,0.00,,,0.00,WUHU21623XXSP,2013-01-14 13:46:00,
2013-01-14 08:51:00,63.5,60.6,29.69,SSW,202,0.0,1.6,90,0.00,,,0.00,WUHU21623XXSP,2013-01-14 13:51:00,
2013-01-14 08:56:00,64.0,61.2,29.69,SW,225,1.3,3.4,90,0.00,,,0.00,WUHU21623XXSP,2013-01-14 13:56:00,
2013-01-14 09:01:00,64.2,61.0,29.69,SSE,157,0.0,3.4,89,0.00,,,0.00,WUHU21623XXSP,2013-01-14 14:01:00,
2013-01-14 09:06:00,64.4,60.8,29.68,SSW,202,0.0,3.4,88,0.00,,,0.00,WUHU21623XXSP,2013-01-14 14:06:00,
2013-01-14 09:11:00,64.6,61.0,29.69,SSW,202,0.0,3.4,88,0.00,,,0.00,WUHU21623XXSP,2013-01-14 14:11:00,
2013-01-14 09:17:00,64.9,61.0,29.69,SSE,157,0.0,3.1,87,0.00,,,0.00,WUHU21623XXSP,2013-01-14 14:17:00,
2013-01-14 09:22:00,65.1,61.2,29.69,SSW,202,0.0,3.1,87,0.00,,,0.00,WUHU21623XXSP,2013-01-14 14:22:00,
2013-01-14 09:27:00,65.5,61.5,29.70,SSW,202,0.0,0.7,87,0.00,,,0.00,WUHU21623XXSP,2013-01-14 14:27:00,
2013-01-14 09:32:00,65.8,61.5,29.70,SSW,202,0.0,0.9,86,0.00,,,0.00,WUHU21623XXSP,2013-01-14 14:32:00,
2013-01-14 09:37:00,66.4,62.0,29.69,SSW,202,0.0,0.9,86,0.00,,,0.00,WUHU21623XXSP,2013-01-14 14:37:00,
2013-01-14 09:42:00,67.3,62.6,29.69,SSW,202,0.0,2.2,85,0.00,,,0.00,WUHU21623XXSP,2013-01-14 14:42:00,
2013-01-14 09:47:00,67.8,62.5,29.69,SW,225,0.0,5.6,83,0.00,,,0.00,WUHU21623XXSP,2013-01-14 14:47:00,
2013-01-14 09:52:00,68.4,62.7,29.69,SW,225,1.8,5.6,82,0.00,,,0.00,WUHU21623XXSP,2013-01-14 14:52:00,
2013-01-14 09:57:00,68.9,63.2,29.69,SW,225,3.4,4.0,82,0.00,,,0.00,WUHU21623XXSP,2013-01-14 14:57:00,
2013-01-14 10:02:00,70.3,63.9,29.70,SSW,202,0.0,4.0,80,0.00,,,0.00,WUHU21623XXSP,2013-01-14 15:02:00,
2013-01-14 10:07:00,73.9,65.9,29.69,SW,225,0.9,3.4,76,0.00,,,0.00,WUHU21623XXSP,2013-01-14 15:07:00,
2013-01-14 10:12:00,76.3,66.6,29.69,SW,225,0.0,4.5,72,0.00,,,0.00,WUHU21623XXSP,2013-01-14 15:12:00,
2013-01-14 10:17:00,77.2,66.3,29.69,South,180,0.0,4.5,69,0.00,,,0.00,WUHU21623XXSP,2013-01-14 15:17:00,
2013-01-14 10:22:00,77.7,65.9,29.69,WSW,247,0.0,3.4,67,0.00,,,0.00,WUHU21623XXSP,2013-01-14 15:22:00,
2013-01-14 10:27:00,76.6,65.3,29.69,WSW,247,2.0,5.6,68,0.00,,,0.00,WUHU21623XXSP,2013-01-14 15:27:00,
2013-01-14 10:32:00,76.1,64.8,29.69,WSW,247,2.5,5.6,68,0.00,,,0.00,WUHU21623XXSP,2013-01-14 15:32:00,
2013-01-14 10:37:00,77.5,65.7,29.69,WSW,247,0.0,3.8,67,0.00,,,0.00,WUHU21623XXSP,2013-01-14 15:37:00,
2013-01-14 10:42:00,78.4,66.1,29.69,WSW,247,0.0,4.9,66,0.00,,,0.00,WUHU21623XXSP,2013-01-14 15:42:00,
2013-01-14 10:47:00,79.2,66.4,29.69,SW,225,2.5,5.4,65,0.00,,,0.00,WUHU21623XXSP,2013-01-14 15:47:00,
2013-01-14 10:52:00,80.6,66.4,29.68,WSW,247,0.0,6.9,62,0.00,,,0.00,WUHU21623XXSP,2013-01-14 15:52:00,
2013-01-14 10:57:00,80.8,66.1,29.68,SW,225,1.3,6.9,61,0.00,,,0.00,WUHU21623XXSP,2013-01-14 15:57:00,
2013-01-14 11:02:00,81.5,66.3,29.68,SW,225,0.7,6.9,60,0.00,,,0.00,WUHU21623XXSP,2013-01-14 16:02:00,
2013-01-14 11:07:00,83.1,67.3,29.68,SSW,202,0.0,5.1,59,0.00,,,0.00,WUHU21623XXSP,2013-01-14 16:07:00,
2013-01-14 11:12:00,82.8,66.4,29.68,SW,225,0.0,4.5,58,0.00,,,0.00,WUHU21623XXSP,2013-01-14 16:12:00,
2013-01-14 11:17:00,83.1,65.7,29.68,West,270,2.0,4.0,56,0.00,,,0.00,WUHU21623XXSP,2013-01-14 16:17:00,
2013-01-14 11:22:00,83.5,66.6,29.68,West,270,2.2,4.0,57,0.00,,,0.00,WUHU21623XXSP,2013-01-14 16:22:00,
2013-01-14 11:27:00,84.2,66.8,29.67,SSE,157,3.1,5.1,56,0.00,,,0.00,WUHU21623XXSP,2013-01-14 16:27:00,
2013-01-14 11:32:00,86.2,67.6,29.67,SSE,157,0.0,5.1,54,0.00,,,0.00,WUHU21623XXSP,2013-01-14 16:32:00,
2013-01-14 11:37:00,87.4,67.7,29.67,WSW,247,0.0,2.9,52,0.00,,,0.00,WUHU21623XXSP,2013-01-14 16:37:00,
2013-01-14 11:42:00,88.2,67.8,29.66,West,270,2.0,3.8,51,0.00,,,0.00,WUHU21623XXSP,2013-01-14 16:42:00,
2013-01-14 11:47:00,88.0,67.1,29.66,ESE,112,1.6,6.0,50,0.00,,,0.00,WUHU21623XXSP,2013-01-14 16:47:00,
2013-01-14 11:52:00,86.7,65.9,29.65,SW,225,0.0,5.1,50,0.00,,,0.00,WUHU21623XXSP,2013-01-14 16:52:00,
2013-01-14 11:57:00,86.4,65.6,29.65,SE,135,3.4,5.1,50,0.00,,,0.00,WUHU21623XXSP,2013-01-14 16:57:00,
2013-01-14 12:02:00,86.2,65.5,29.65,WSW,247,0.0,5.4,50,0.00,,,0.00,WUHU21623XXSP,2013-01-14 17:02:00,
2013-01-14 12:07:00,85.6,65.0,29.65,WSW,247,2.7,11.6,50,0.00,,,0.00,WUHU21623XXSP,2013-01-14 17:07:00,
2013-01-14 12:12:00,85.8,65.1,29.65,WSW,247,0.0,11.6,50,0.00,,,0.00,WUHU21623XXSP,2013-01-14 17:12:00,
2013-01-14 12:17:00,87.6,66.8,29.64,SSW,202,0.0,5.6,50,0.00,,,0.00,WUHU21623XXSP,2013-01-14 17:17:00,
2013-01-14 12:22:00,90.3,67.2,29.64,West,270,1.1,6.9,47,0.00,,,0.00,WUHU21623XXSP,2013-01-14 17:22:00,
2013-01-14 12:27:00,89.2,65.6,29.64,West,270,0.0,6.9,46,0.00,,,0.00,WUHU21623XXSP,2013-01-14 17:27:00,
2013-01-14 12:32:00,88.3,66.1,29.64,West,270,1.1,5.8,48,0.00,,,0.00,WUHU21623XXSP,2013-01-14 17:32:00,
2013-01-14 12:37:00,88.5,65.6,29.63,WNW,292,0.0,6.5,47,0.00,,,0.00,WUHU21623XXSP,2013-01-14 17:37:00,
2013-01-14 12:42:00,88.3,66.1,29.63,West,270,0.0,6.5,48,0.00,,,0.00,WUHU21623XXSP,2013-01-14 17:42:00,
2013-01-14 12:47:00,89.2,66.3,29.63,WSW,247,1.3,6.5,47,0.00,,,0.00,WUHU21623XXSP,2013-01-14 17:47:00,
2013-01-14 12:52:00,89.2,65.6,29.63,WSW,247,0.0,6.5,46,0.00,,,0.00,WUHU21623XXSP,2013-01-14 17:52:00,
2013-01-14 12:57:00,85.3,64.7,29.63,WSW,247,1.8,4.9,50,0.00,,,0.00,WUHU21623XXSP,2013-01-14 17:57:00,
2013-01-14 13:02:00,86.5,65.2,29.63,WSW,247,0.0,4.9,49,0.00,,,0.00,WUHU21623XXSP,2013-01-14 18:02:00,
2013-01-14 13:07:00,87.1,65.6,29.62,WSW,247,1.8,3.8,49,0.00,,,0.00,WUHU21623XXSP,2013-01-14 18:07:00,
2013-01-14 13:13:00,86.5,65.2,29.62,SW,225,1.1,5.4,49,0.00,,,0.00,WUHU21623XXSP,2013-01-14 18:13:00,
2013-01-14 13:18:00,84.9,64.8,29.62,WSW,247,2.5,5.4,51,0.00,,,0.00,WUHU21623XXSP,2013-01-14 18:18:00,
2013-01-14 13:23:00,82.6,63.1,29.62,WSW,247,0.0,3.4,52,0.00,,,0.00,WUHU21623XXSP,2013-01-14 18:23:00,
2013-01-14 13:28:00,83.5,64.0,29.62,West,270,1.8,3.4,52,0.00,,,0.00,WUHU21623XXSP,2013-01-14 18:28:00,
2013-01-14 13:33:00,82.2,63.8,29.62,WSW,247,1.8,4.9,54,0.00,,,0.00,WUHU21623XXSP,2013-01-14 18:33:00,
2013-01-14 13:38:00,83.3,64.3,29.62,SSW,202,2.2,4.9,53,0.00,,,0.00,WUHU21623XXSP,2013-01-14 18:38:00,
2013-01-14 13:43:00,82.0,63.1,29.62,SSW,202,2.0,3.4,53,0.00,,,0.00,WUHU21623XXSP,2013-01-14 18:43:00,
2013-01-14 13:48:00,83.5,64.5,29.62,WSW,247,0.0,4.0,53,0.00,,,0.00,WUHU21623XXSP,2013-01-14 18:48:00,
2013-01-14 13:53:00,87.6,65.5,29.61,SW,225,1.3,4.0,48,0.00,,,0.00,WUHU21623XXSP,2013-01-14 18:53:00,
2013-01-14 13:58:00,86.2,64.2,29.61,WSW,247,2.7,6.9,48,0.00,,,0.00,WUHU21623XXSP,2013-01-14 18:58:00,
2013-01-14 14:03:00,83.3,62.8,29.61,West,270,0.7,7.4,50,0.00,,,0.00,WUHU21623XXSP,2013-01-14 19:03:00,
2013-01-14 14:08:00,81.5,62.6,29.61,SW,225,0.0,7.4,53,0.00,,,0.00,WUHU21623XXSP,2013-01-14 19:08:00,
2013-01-14 14:13:00,81.3,63.0,29.61,SSW,202,0.0,5.6,54,0.00,,,0.00,WUHU21623XXSP,2013-01-14 19:13:00,
2013-01-14 14:18:00,81.7,63.3,29.61,SW,225,0.0,6.0,54,0.00,,,0.00,WUHU21623XXSP,2013-01-14 19:18:00,
2013-01-14 14:23:00,82.9,64.0,29.61,SSW,202,0.0,6.0,53,0.00,,,0.00,WUHU21623XXSP,2013-01-14 19:23:00,
2013-01-14 14:28:00,81.5,62.6,29.62,WSW,247,1.6,4.7,53,0.00,,,0.00,WUHU21623XXSP,2013-01-14 19:28:00,
2013-01-14 14:33:00,80.6,62.3,29.61,NW,315,0.0,5.4,54,0.00,,,0.00,WUHU21623XXSP,2013-01-14 19:33:00,
2013-01-14 14:38:00,79.9,62.2,29.62,SW,225,0.0,5.4,55,0.00,,,0.00,WUHU21623XXSP,2013-01-14 19:38:00,
2013-01-14 14:43:00,83.1,63.6,29.61,SW,225,2.9,4.5,52,0.00,,,0.00,WUHU21623XXSP,2013-01-14 19:43:00,
2013-01-14 14:48:00,86.9,64.8,29.61,WSW,247,1.1,5.1,48,0.00,,,0.00,WUHU21623XXSP,2013-01-14 19:48:00,
2013-01-14 14:53:00,89.2,65.6,29.61,WSW,247,0.0,5.1,46,0.00,,,0.00,WUHU21623XXSP,2013-01-14 19:53:00,
2013-01-14 14:58:00,91.0,65.9,29.62,SW,225,0.0,4.0,44,0.00,,,0.00,WUHU21623XXSP,2013-01-14 19:58:00,
2013-01-14 15:03:00,88.3,64.2,29.62,SW,225,0.0,3.8,45,0.00,,,0.00,WUHU21623XXSP,2013-01-14 20:03:00,
2013-01-14 15:08:00,86.5,63.9,29.62,WSW,247,2.0,4.0,47,0.00,,,0.00,WUHU21623XXSP,2013-01-14 20:08:00,
2013-01-14 15:13:00,87.4,64.1,29.62,WSW,247,0.0,4.0,46,0.00,,,0.00,WUHU21623XXSP,2013-01-14 20:13:00,
2013-01-14 15:18:00,87.6,64.2,29.62,SSW,202,0.0,5.4,46,0.00,,,0.00,WUHU21623XXSP,2013-01-14 20:18:00,
2013-01-14 15:23:00,86.0,63.4,29.62,SW,225,0.0,7.8,47,0.00,,,0.00,WUHU21623XXSP,2013-01-14 20:23:00,
2013-01-14 15:28:00,84.4,62.6,29.62,WSW,247,0.0,7.8,48,0.00,,,0.00,WUHU21623XXSP,2013-01-14 20:28:00,
2013-01-14 15:33:00,82.9,62.4,29.62,SSW,202,0.0,6.7,50,0.00,,,0.00,WUHU21623XXSP,2013-01-14 20:33:00,
2013-01-14 15:38:00,82.6,62.1,29.63,SW,225,2.0,4.0,50,0.00,,,0.00,WUHU21623XXSP,2013-01-14 20:38:00,
2013-01-14 15:43:00,82.2,61.7,29.63,SW,225,2.5,4.7,50,0.00,,,0.00,WUHU21623XXSP,2013-01-14 20:43:00,
2013-01-14 15:48:00,80.8,61.5,29.63,West,270,0.0,6.7,52,0.00,,,0.00,WUHU21623XXSP,2013-01-14 20:48:00,
2013-01-14 15:53:00,79.3,61.2,29.63,SW,225,0.0,6.7,54,0.00,,,0.00,WUHU21623XXSP,2013-01-14 20:53:00,
2013-01-14 15:58:00,78.4,60.9,29.63,SW,225,0.0,6.3,55,0.00,,,0.00,WUHU21623XXSP,2013-01-14 20:58:00,
2013-01-14 16:03:00,77.7,60.7,29.63,SW,225,0.0,3.4,56,0.00,,,0.00,WUHU21623XXSP,2013-01-14 21:03:00,
2013-01-14 16:08:00,77.2,60.7,29.63,SW,225,2.9,2.9,57,0.00,,,0.00,WUHU21623XXSP,2013-01-14 21:08:00,
2013-01-14 16:13:00,76.8,60.9,29.63,SW,225,0.0,2.9,58,0.00,,,0.00,WUHU21623XXSP,2013-01-14 21:13:00,
2013-01-14 16:18:00,76.6,61.2,29.64,SW,225,0.0,2.5,59,0.00,,,0.00,WUHU21623XXSP,2013-01-14 21:18:00,
2013-01-14 16:23:00,76.6,61.2,29.64,SW,225,0.0,0.0,59,0.00,,,0.00,WUHU21623XXSP,2013-01-14 21:23:00,
2013-01-14 16:28:00,76.3,60.9,29.64,SW,225,0.0,2.9,59,0.00,,,0.00,WUHU21623XXSP,2013-01-14 21:28:00,
2013-01-14 16:33:00,75.9,60.6,29.64,SSW,202,0.0,2.9,59,0.00,,,0.00,WUHU21623XXSP,2013-01-14 21:33:00,
2013-01-14 16:38:00,75.9,61.1,29.64,SSW,202,0.0,1.8,60,0.00,,,0.00,WUHU21623XXSP,2013-01-14 21:38:00,
2013-01-14 16:43:00,75.7,60.9,29.63,SSW,202,0.0,0.0,60,0.00,,,0.00,WUHU21623XXSP,2013-01-14 21:43:00,
2013-01-14 16:48:00,75.4,60.6,29.63,West,270,0.0,3.1,60,0.00,,,0.00,WUHU21623XXSP,2013-01-14 21:48:00,
2013-01-14 16:53:00,74.8,60.5,29.64,West,270,0.0,3.1,61,0.00,,,0.00,WUHU21623XXSP,2013-01-14 21:53:00,
2013-01-14 16:58:00,74.5,60.2,29.64,West,270,0.0,1.1,61,0.00,,,0.00,WUHU21623XXSP,2013-01-14 21:58:00,
2013-01-14 17:03:00,74.1,60.2,29.64,West,270,0.0,0.0,62,0.00,,,0.00,WUHU21623XXSP,2013-01-14 22:03:00,
2013-01-14 17:08:00,73.8,60.3,29.64,West,270,0.0,0.0,63,0.00,,,0.00,WUHU21623XXSP,2013-01-14 22:08:00,
2013-01-14 17:14:00,73.4,60.0,29.64,West,270,0.0,0.0,63,0.00,,,0.00,WUHU21623XXSP,2013-01-14 22:14:00,
2013-01-14 17:19:00,73.2,60.3,29.65,West,270,0.0,0.0,64,0.00,,,0.00,WUHU21623XXSP,2013-01-14 22:19:00,
2013-01-14 17:24:00,72.9,59.9,29.65,WSW,247,0.0,0.0,64,0.00,,,0.00,WUHU21623XXSP,2013-01-14 22:24:00,
2013-01-14 17:29:00,72.7,60.2,29.64,WSW,247,0.0,0.0,65,0.00,,,0.00,WUHU21623XXSP,2013-01-14 22:29:00,
2013-01-14 17:34:00,72.5,60.0,29.65,WSW,247,0.0,0.0,65,0.00,,,0.00,WUHU21623XXSP,2013-01-14 22:34:00,
2013-01-14 17:39:00,72.3,60.3,29.64,WSW,247,0.0,0.0,66,0.00,,,0.00,WUHU21623XXSP,2013-01-14 22:39:00,
2013-01-14 17:44:00,72.1,60.1,29.65,WSW,247,0.0,0.0,66,0.00,,,0.00,WUHU21623XXSP,2013-01-14 22:44:00,
2013-01-14 17:49:00,72.0,60.4,29.65,WSW,247,0.0,0.0,67,0.00,,,0.00,WUHU21623XXSP,2013-01-14 22:49:00,
2013-01-14 17:54:00,71.8,60.2,29.65,WSW,247,0.0,0.0,67,0.00,,,0.00,WUHU21623XXSP,2013-01-14 22:54:00,
2013-01-14 17:59:00,71.4,59.9,29.65,WSW,247,0.0,0.0,67,0.00,,,0.00,WUHU21623XXSP,2013-01-14 22:59:00,
2013-01-14 18:04:00,71.2,59.7,29.65,WSW,247,0.0,0.0,67,0.00,,,0.00,WUHU21623XXSP,2013-01-14 23:04:00,
2013-01-14 18:09:00,70.9,59.8,29.65,WSW,247,0.0,0.0,68,0.00,,,0.00,WUHU21623XXSP,2013-01-14 23:09:00,
2013-01-14 18:14:00,70.5,59.4,29.66,WSW,247,0.0,0.0,68,0.00,,,0.00,WUHU21623XXSP,2013-01-14 23:14:00,
2013-01-14 18:19:00,70.0,59.3,29.66,WSW,247,0.0,0.0,69,0.00,,,0.00,WUHU21623XXSP,2013-01-14 23:19:00,
2013-01-14 18:24:00,69.4,58.8,29.66,WSW,247,0.0,0.0,69,0.00,,,0.00,WUHU21623XXSP,2013-01-14 23:24:00,
2013-01-14 18:29:00,68.7,58.6,29.67,WSW,247,0.0,0.0,70,0.00,,,0.00,WUHU21623XXSP,2013-01-14 23:29:00,
2013-01-14 18:34:00,68.4,58.2,29.67,WSW,247,0.0,0.0,70,0.00,,,0.00,WUHU21623XXSP,2013-01-14 23:34:00,
2013-01-14 18:39:00,68.2,58.5,29.66,WSW,247,0.0,0.0,71,0.00,,,0.00,WUHU21623XXSP,2013-01-14 23:39:00,
2013-01-14 18:44:00,67.8,58.5,29.66,WSW,247,0.0,0.0,72,0.00,,,0.00,WUHU21623XXSP,2013-01-14 23:44:00,
2013-01-14 18:49:00,67.8,58.9,29.66,WSW,247,0.0,0.0,73,0.00,,,0.00,WUHU21623XXSP,2013-01-14 23:49:00,
2013-01-14 18:54:00,67.8,58.9,29.66,WSW,247,0.0,0.0,73,0.00,,,0.00,WUHU21623XXSP,2013-01-14 23:54:00,
2013-01-14 18:59:00,67.8,59.3,29.66,WSW,247,0.0,0.0,74,0.00,,,0.00,WUHU21623XXSP,2013-01-14 23:59:00,
2013-01-14 19:04:00,67.8,59.3,29.67,WSW,247,0.0,0.0,74,0.00,,,0.00,WUHU21623XXSP,2013-01-15 00:04:00,
2013-01-14 19:09:00,67.6,59.1,29.67,WSW,247,0.0,0.0,74,0.00,,,0.00,WUHU21623XXSP,2013-01-15 00:09:00,
2013-01-14 19:14:00,67.3,58.7,29.67,WSW,247,0.0,0.0,74,0.00,,,0.00,WUHU21623XXSP,2013-01-15 00:14:00,
2013-01-14 19:19:00,67.3,59.1,29.67,WSW,247,0.0,0.0,75,0.00,,,0.00,WUHU21623XXSP,2013-01-15 00:19:00,
2013-01-14 19:24:00,67.1,58.9,29.66,WSW,247,0.0,0.0,75,0.00,,,0.00,WUHU21623XXSP,2013-01-15 00:24:00,
2013-01-14 19:29:00,66.9,59.1,29.66,WSW,247,0.0,0.0,76,0.00,,,0.00,WUHU21623XXSP,2013-01-15 00:29:00,
2013-01-14 19:34:00,66.9,59.1,29.66,WSW,247,0.0,0.0,76,0.00,,,0.00,WUHU21623XXSP,2013-01-15 00:34:00,
2013-01-14 19:39:00,66.9,59.1,29.66,WSW,247,0.0,0.0,76,0.00,,,0.00,WUHU21623XXSP,2013-01-15 00:39:00,
2013-01-14 19:44:00,66.9,59.1,29.67,WSW,247,0.0,0.0,76,0.00,,,0.00,WUHU21623XXSP,2013-01-15 00:44:00,
2013-01-14 19:49:00,66.7,59.3,29.66,WSW,247,0.0,0.0,77,0.00,,,0.00,WUHU21623XXSP,2013-01-15 00:49:00,
2013-01-14 19:54:00,66.7,59.3,29.66,WSW,247,0.0,0.0,77,0.00,,,0.00,WUHU21623XXSP,2013-01-15 00:54:00,
2013-01-14 19:59:00,66.7,59.3,29.66,WSW,247,0.0,0.0,77,0.00,,,0.00,WUHU21623XXSP,2013-01-15 00:59:00,
2013-01-14 20:04:00,66.7,59.7,29.66,WSW,247,0.0,0.0,78,0.00,,,0.00,WUHU21623XXSP,2013-01-15 01:04:00,
2013-01-14 20:09:00,66.9,59.9,29.65,WSW,247,0.0,0.0,78,0.00,,,0.00,WUHU21623XXSP,2013-01-15 01:09:00,
2013-01-14 20:14:00,66.9,59.9,29.66,WSW,247,0.0,0.0,78,0.00,,,0.00,WUHU21623XXSP,2013-01-15 01:14:00,
2013-01-14 20:19:00,66.7,59.7,29.66,WSW,247,0.0,0.0,78,0.00,,,0.00,WUHU21623XXSP,2013-01-15 01:19:00,
2013-01-14 20:25:00,66.7,59.7,29.66,WSW,247,0.0,0.0,78,0.00,,,0.00,WUHU21623XXSP,2013-01-15 01:25:00,
2013-01-14 20:30:00,66.7,59.7,29.66,SW,225,0.0,0.0,78,0.00,,,0.00,WUHU21623XXSP,2013-01-15 01:30:00,
2013-01-14 20:35:00,66.7,59.7,29.66,SW,225,0.0,0.0,78,0.00,,,0.00,WUHU21623XXSP,2013-01-15 01:35:00,
2013-01-14 20:40:00,66.7,59.7,29.65,SW,225,0.0,1.8,78,0.00,,,0.00,WUHU21623XXSP,2013-01-15 01:40:00,
2013-01-14 20:45:00,66.7,59.7,29.65,SW,225,0.0,1.8,78,0.00,,,0.00,WUHU21623XXSP,2013-01-15 01:45:00,
2013-01-14 20:50:00,66.6,59.5,29.65,SW,225,0.0,0.0,78,0.00,,,0.00,WUHU21623XXSP,2013-01-15 01:50:00,
2013-01-14 20:55:00,66.6,59.5,29.65,SSW,202,0.0,0.7,78,0.00,,,0.00,WUHU21623XXSP,2013-01-15 01:55:00,
2013-01-14 21:00:00,66.4,59.3,29.65,SW,225,0.0,1.8,78,0.00,,,0.00,WUHU21623XXSP,2013-01-15 02:00:00,
2013-01-14 21:05:00,66.4,59.3,29.65,SW,225,0.0,1.8,78,0.00,,,0.00,WUHU21623XXSP,2013-01-15 02:05:00,
2013-01-14 21:10:00,66.0,59.3,29.65,SW,225,0.0,0.0,79,0.00,,,0.00,WUHU21623XXSP,2013-01-15 02:10:00,
2013-01-14 21:15:00,66.0,59.3,29.65,SW,225,0.0,0.0,79,0.00,,,0.00,WUHU21623XXSP,2013-01-15 02:15:00,
2013-01-14 21:20:00,65.8,59.2,29.65,SW,225,0.0,0.0,79,0.00,,,0.00,WUHU21623XXSP,2013-01-15 02:20:00,
2013-01-14 21:25:00,65.7,59.0,29.66,SW,225,0.0,0.0,79,0.00,,,0.00,WUHU21623XXSP,2013-01-15 02:25:00,
2013-01-14 21:30:00,65.5,58.8,29.66,SW,225,0.0,0.0,79,0.00,,,0.00,WUHU21623XXSP,2013-01-15 02:30:00,
2013-01-14 21:35:00,65.1,58.4,29.66,SW,225,0.0,0.0,79,0.00,,,0.00,WUHU21623XXSP,2013-01-15 02:35:00,
2013-01-14 21:40:00,65.1,58.8,29.65,SW,225,0.0,0.0,80,0.00,,,0.00,WUHU21623XXSP,2013-01-15 02:40:00,
2013-01-14 21:45:00,64.9,58.6,29.65,SW,225,0.0,0.0,80,0.00,,,0.00,WUHU21623XXSP,2013-01-15 02:45:00,
2013-01-14 21:50:00,64.9,59.0,29.65,SW,225,0.0,0.0,81,0.00,,,0.00,WUHU21623XXSP,2013-01-15 02:50:00,
2013-01-14 21:55:00,64.9,59.0,29.65,SW,225,0.0,0.0,81,0.00,,,0.00,WUHU21623XXSP,2013-01-15 02:55:00,
2013-01-14 22:00:00,64.9,59.0,29.65,SW,225,0.0,2.0,81,0.00,,,0.00,WUHU21623XXSP,2013-01-15 03:00:00,
2013-01-14 22:05:00,64.9,59.0,29.65,SW,225,0.0,2.0,81,0.00,,,0.00,WUHU21623XXSP,2013-01-15 03:05:00,
2013-01-14 22:10:00,64.9,59.0,29.65,SW,225,0.0,0.0,81,0.00,,,0.00,WUHU21623XXSP,2013-01-15 03:10:00,
2013-01-14 22:15:00,64.9,59.0,29.65,SW,225,0.0,0.0,81,0.00,,,0.00,WUHU21623XXSP,2013-01-15 03:15:00,
2013-01-14 22:20:00,64.9,59.0,29.66,SW,225,0.0,0.7,81,0.00,,,0.00,WUHU21623XXSP,2013-01-15 03:20:00,
2013-01-14 22:25:00,65.1,59.1,29.66,SW,225,0.0,0.7,81,0.00,,,0.00,WUHU21623XXSP,2013-01-15 03:25:00,
2013-01-14 22:30:00,65.1,59.1,29.66,SW,225,0.0,0.0,81,0.00,,,0.00,WUHU21623XXSP,2013-01-15 03:30:00,
2013-01-14 22:35:00,65.3,59.3,29.66,SW,225,0.0,3.4,81,0.00,,,0.00,WUHU21623XXSP,2013-01-15 03:35:00,
2013-01-14 22:40:00,65.3,59.3,29.66,SW,225,0.0,3.4,81,0.00,,,0.00,WUHU21623XXSP,2013-01-15 03:40:00,
2013-01-14 22:45:00,65.3,59.3,29.66,SSW,202,0.0,0.0,81,0.00,,,0.00,WUHU21623XXSP,2013-01-15 03:45:00,
2013-01-14 22:50:00,65.3,59.3,29.66,SSW,202,0.0,0.0,81,0.00,,,0.00,WUHU21623XXSP,2013-01-15 03:50:00,
2013-01-14 22:55:00,65.3,59.3,29.66,SSW,202,0.0,0.0,81,0.00,,,0.00,WUHU21623XXSP,2013-01-15 03:55:00,
2013-01-14 23:00:00,65.3,59.3,29.65,SSW,202,0.0,0.0,81,0.00,,,0.00,WUHU21623XXSP,2013-01-15 04:00:00,
2013-01-14 23:05:00,65.3,59.3,29.65,SSW,202,0.0,0.0,81,0.00,,,0.00,WUHU21623XXSP,2013-01-15 04:05:00,
2013-01-14 23:10:00,65.1,59.1,29.65,SSW,202,0.0,0.0,81,0.00,,,0.00,WUHU21623XXSP,2013-01-15 04:10:00,
2013-01-14 23:15:00,65.1,59.1,29.66,SSW,202,0.0,0.0,81,0.00,,,0.00,WUHU21623XXSP,2013-01-15 04:15:00,
2013-01-14 23:20:00,65.1,59.1,29.66,SSW,202,0.0,0.0,81,0.00,,,0.00,WUHU21623XXSP,2013-01-15 04:20:00,
2013-01-14 23:25:00,65.1,59.1,29.66,SSW,202,0.0,0.0,81,0.00,,,0.00,WUHU21623XXSP,2013-01-15 04:25:00,
2013-01-14 23:30:00,64.9,59.0,29.66,SSW,202,0.0,0.0,81,0.00,,,0.00,WUHU21623XXSP,2013-01-15 04:30:00,
2013-01-14 23:35:00,64.9,59.0,29.66,SSW,202,0.0,0.0,81,0.00,,,0.00,WUHU21623XXSP,2013-01-15 04:35:00,
2013-01-14 23:41:00,64.8,58.8,29.66,SSW,202,0.0,0.0,81,0.00,,,0.00,WUHU21623XXSP,2013-01-15 04:41:00,
2013-01-14 23:46:00,64.8,59.1,29.66,SSW,202,0.0,0.0,82,0.00,,,0.00,WUHU21623XXSP,2013-01-15 04:46:00,
2013-01-14 23:51:00,64.6,58.9,29.66,SSW,202,0.0,0.0,82,0.00,,,0.00,WUHU21623XXSP,2013-01-15 04:51:00,
2013-01-14 23:56:00,64.6,58.9,29.66,SSW,202,0.0,0.0,82,0.00,,,0.00,WUHU21623XXSP,2013-01-15 04:56:00,